TURKSAT 3A

Last updated on Thu Oct 30 2025 00:02:48 GMT+0000 (Coordinated Universal Time)

1 33056U 08030B 25302.47939774 .00000156 00000+0 00000+0 0 9990 2 33056 0.0501 72.5057 0003555 126.9063 53.2654 1.00274309 50046
UTC large
Height (km)
Speed (km/s)
/
Latitude / Longitude
Inclination (degrees)
Orbital Period (minutes)
Azimuth
Elevation
Range (km)
Doppler Factor

Next 0 passes for location: London (51.5072 / 0.1276)

Sorry there are no passes over London.